Showing default

LEMUR 2 SIERRINI, 60579

Orbit data source: Space-Track

LEMUR 2 SIERRINI, 60579 is an American payload satellite in SSO that was launched on Fri, 16 Aug 2024 UTC via an FALCON 9 launch vehicle from the Air Force Western Test Range (AFWTR). Payload-class satellites include a variety of spacecraft equipped with specific instruments for various scientific and technological missions. These include communications satellites like Starlink; space stations such as the ISS; scientific satellites like the Hubble; Earth observation satellites from companies like Planet Labs, Umbra, and HawkEye 360; GPS; miniature CubeSats for education and research; and military/defense satellites.

Loading next visibility...
Identifier
60579, 2024-149DR
Orbit
SSO
Country
Flag of USUS
Related business
Manufacturer
Spire/Glasgow
Mission
Operational Commercial Com/MetRO
Bus & Motor
CUBESAT 3U, Unknown motor
Mass
7.6 kg wet, 7.6 kg dry
Launch date (UTC)
2024-08-16 (1 year ago)
Launch vehicle
FALCON 9
Launch site
Air Force Western Test Range (AFWTR)
Object type
Payload
Rocket body
Debris
Shape & HBR
Box + 2 Pan, 0.5 m
Radar Cross Section
0.063 m², Small (<0.1 m²)

Expand to show TLE details & history
Last TLE update: 6 hours ago

TLE from 6 hours ago
0 LEMUR 2 SIERRINI
1 60579U 24149DR  26035.30426815  .00014497  00000-0  95144-3 0  9993
2 60579  97.6933 117.5853 0004599 266.6749  93.3953 15.07748943 80416
Epoch: 2026-02-04T07:18Z
TLE epoch observation values (Epoch: 2026-02-04T07:18:08.768Z)
Latitude
0.00004°
Longitude
-126.42401°
Altitude
546.336 km
Speed
7.589 km/s
True Right ascension
07h 50m 20s
True Declination
0° 00' 00"
Sunlit
Object was in full shadow at epoch
Visualization orbit readout
Latitude
Unknown
Longitude
Unknown
Altitude
Unknown
Speed
Unknown
Apparent Right ascension
Unknown
Apparent Declination
Unknown
Sunlit
N/A
Visualization observer readout
Local Sidereal Time
15:36:26
Azimuth
Unknown
Elevation
Unknown
Doppler factor
Unknown
Orbital elements
Apogee altitude
543.257 km
Perigee altitude
536.893 km
Semi-major axis
6,918.212 km
Eccentricity
0.00046
Inclination
97.6933°
RAAN
117.5853°
Arg. of periapsis
266.6749°
True anomaly
93.44791°
Mean anomaly
93.3953°
Eccentric anomaly
93.4216°
Mean motion
3.77183 °/min
Orbital period
95.44 mins
BSTAR
0.00095144
Loading maneuver chart data...
Computing Atmospheric mass density...
Loading historical data...
Loading historical data...
Loading historical data...
Loading historical data...
Loading historical data...
Loading historical data...
Loading historical data...

Documentation

Showing up to 5 results
|